Location: Newark
(63.1158°N, 8.1461°E)
Time: 01:42:13
(UTC+00:00)

Envisat - Pass Details

Date: 13 December 2019
Orbit: 764 x 766 km, 98.1° (Epoch: 22 January)

Event Time Altitude Azimuth Distance (km) Brightness Sun altitude
Rises 07:41:49 0° 19° (NNE) 3,251 6.0 -6.4°
Reaches altitude 10° 07:44:11 10° 14° (NNE) 2,321 5.2 -6.2°
Maximum altitude 07:49:07 51° 300° (WNW) 964 3.2 -5.8°
Drops below altitude 10° 07:54:02 10° 226° (SW) 2,307 5.5 -5.4°
Sets 07:56:22 0° 221° (SW) 3,230 6.3 -5.2°
